Regional Weather Roundup
Issued by NWS

Home | Current Version | Previous Version | Graphics & Text | Print | Product List | Glossary On
Versions: 1 2 3 4 5 6 7 8 9 10 11 12 13 14 15 16 17 18 19 20 21 22 23 24 25 26 27
000
ASUS45 KBOU 012207
RWRCO

WEATHER ROUNDUP FOR COLORADO
NATIONAL WEATHER SERVICE DENVER/BOULDER CO
400 PM MDT SUN MAY 01 2016

NOTE: "FAIR" INDICATES FEW OR NO CLOUDS BELOW 12000 FEET WITH NO
SIGNIFICANT WEATHER AND/OR OBSTRUCTIONS TO VISIBILITY.

COZ001>005-013-030-031-012300-
...NORTHWEST COLORADO...

CITY           SKY/WX    TMP DP  RH WIND       PRES   REMARKS
CRAIG          FAIR      57  25  29 E10G18    30.05F
HAYDEN         FAIR      52  25  35 E17G23    30.06F
MEEKER         PTSUNNY   56  28  34 N14       30.03F
MOUNT WERNER   NOT AVBL
STEAMBOAT SPGS FAIR      50  24  36 SE10G20   30.08F
WALDEN         PTSUNNY   41  21  45 NE22      30.15S
$$

COZ006>008-011-012300-
...WEST CENTRAL VALLEYS...

CITY           SKY/WX    TMP DP  RH WIND       PRES   REMARKS
GRAND JUNCTION PTSUNNY   59  30  33 S7        30.01F
MONTROSE       CLOUDY    54  27  35 NE9G20    30.05R
EAGLE          NOT AVBL
RIFLE          PTSUNNY   60  25  26 VRB3      29.99S
DELTA          NOT AVBL
NUCLA          NOT AVBL
$$

COZ017>023-064>068-012300-
...SOUTHWEST COLORADO...

CITY           SKY/WX    TMP DP  RH WIND       PRES   REMARKS
DURANGO        PTSUNNY   40  37  89 NE9       30.11S
CORTEZ         FAIR      53  36  52 S17       30.06F
PAGOSA SPRINGS CLOUDY    43  32  66 S5        30.12S
TELLURIDE      PTSUNNY   36  34  92 W7        30.12R
WOLF CREEK PAS SNOW      23  23 100 CALM      30.21S VSB 1/2
$$

COZ009-010-012-014-032>034-037-058>063-012300-
...CENTRAL COLORADO...

CITY           SKY/WX    TMP DP  RH WIND       PRES   REMARKS
ASPEN          CLOUDY    48  22  35 SW10      30.06S
BUENA VISTA    LGT SNOW  33  28  80 S3        30.21S
COPPER MTN     NOT AVBL
BERTHOUD PASS  CLOUDY    14   5  67 MISG      30.20S
COTTONWOOD PAS LGT SNOW  32  27  80 E3        30.21F
GUNNISON       FAIR      43  25  49 E10       30.15R
KREMMLING      FAIR      50  18  27 E12G21    30.12S
LEADVILLE      CLOUDY    27  20  75 S13       30.17S WCI  16
MONARCH PASS   CLOUDY    19  18  93 MISG      30.28S
SALIDA         CLOUDY    38  31  76 E8G16     30.29S
SUNLIGHT       LGT SNOW  34  27  75 CALM      30.18S
WILKERSON PASS SNOW     N/A N/A N/A E5        30.25S VSB<1/4
$$

COZ069>075-012300-
...SAN LUIS VALLEY/SANGRE DE CRISTO MOUNTAINS...

CITY           SKY/WX    TMP DP  RH WIND       PRES   REMARKS
ALAMOSA        CLOUDY    44  29  55 E16       30.13F
LA VETA PASS   SNOW      23  19  86 MISG      30.21R VSB 1/4
SAGUACHE       CLOUDY    41  27  56 S8        30.15F
$$

COZ035-036-038>040-012300-
...NORTHERN COLORADO FRONT RANGE...

CITY           SKY/WX    TMP DP  RH WIND       PRES   REMARKS
DENVER INTL AP CLOUDY    39  29  67 NW9       30.28S
DMNS CITY PARK   N/A     39  30  70 N5        30.28F
AURORA         CLOUDY    36  33  88 W6        30.28F
FRONT RANGE AP CLOUDY    37  30  75 NW6       30.28F
ERIE MUNI ARPT CLOUDY    43  32  64 W6        30.28F
BOULDER MUN AP CLOUDY    41  30  65 CALM      30.28S
CENTENNIAL     FLURRIES  35  30  82 NW3       30.28F
BROOMFIELD     NOT AVBL
FORT COLLINS   CLOUDY    46  28  49 N6        30.29S
LONGMONT       CLOUDY    46  30  54 CALM      30.29F HAZE
$$

COZ041-046-047-076>085-087-088-012300-
...PIKES PEAK/PALMER DIVIDE AND SOUTHERN FOOTHILLS...

CITY           SKY/WX    TMP DP  RH WIND       PRES   REMARKS
COLO. SPRINGS  LGT SNOW  37  29  72 N16       30.27S
A. F. ACADEMY  LGT RAIN  32  28  86 N16       30.25S WCI  21
SCHRIEVER AFB  NOT AVBL
ELLICOTT       NOT AVBL
FALCON         CLOUDY    34  28  78 N14       30.27R WCI  25
FORT CARSON    FLURRIES  41  28  60 NE16      30.25S
LIMON          PTSUNNY   37  28  70 N10       30.27S
MONUMENT HILL  CLOUDY    30  28  93 N7        30.27F WCI  23
TRINIDAD       LGT SNOW  37  33  85 N12       30.26S FOG
$$

COZ042>045-048>051-090-091-012300-
...NORTHEAST COLORADO...

CITY           SKY/WX    TMP DP  RH WIND       PRES   REMARKS
GREELEY ARPT   CLOUDY    45  27  49 N6        30.28F
AKRON          FAIR      40  29  64 NE12      30.25F
BURLINGTON     CLOUDY    46  30  53 N16       30.22F
WRAY           NOT AVBL
STERLING       CLOUDY    46  30  53 NE13      30.25S
HOLYOKE        NOT AVBL
FORT MORGAN    CLOUDY    50  24  35 N10       30.27S
$$

COZ086-089-092>099-012300-
...SOUTHEAST COLORADO...

CITY           SKY/WX    TMP DP  RH WIND       PRES   REMARKS
PUEBLO         CLOUDY    46  31  55 NE12      30.26F
LA JUNTA       CLOUDY    47  30  51 N16       30.25F
LAMAR          CLOUDY    48  31  51 N14       30.21F
SPRINGFIELD      N/A     42  33  70 N20       30.20F
$$




USA.gov is the U.S. government's official web portal to all federal, state and local government web resources and services.